Location: Ward Pound Ridge Reservation
(41.2500°N, 73.6000°W)
Time: 11:13:12
(UTC-05:00)

Envisat - Pass Details

Date: 12 October 2017
Orbit: 764 x 766 km, 98.2° (Epoch: 11 December)

Event Time Altitude Azimuth Distance (km) Brightness Sun altitude
Exits shadow 19:53:45 31° 67° (ENE) 1,321 3.7 -18.8°
Drops below altitude 10° 19:58:10 10° 7° (N) 2,313 5.5 -19.6°
Sets 20:00:41 0° 358° (N) 3,244 6.4 -20.1°
